Location: ActonStarParty
(42.4766°N, 71.4538°W)
Time: 20:12:59
(UTC-04:00)

ATLAS 5 CENTAUR R/B - Visible Passes

Search period start: 25 September 2016 00:00
Search period end: 05 October 2016 00:00
Orbit: 236 x 14673 km, 60.8° (Epoch: 07 August)

Date Brightness Start Highest point End Pass type
(mag) Time Alt. Az. Time Alt. Az. Time Alt. Az.
25 Sep 7.7 01:10:26 10° W 02:21:00 64° N 04:21:44 10° E visible
25 Sep 7.0 19:01:06 10° SE 19:30:50 32° ENE 20:50:50 10° NNE visible
25 Sep 7.3 23:30:08 10° SW 00:10:41 75° NW 02:31:44 10° ENE visible
26 Sep 8.3 04:31:37 10° WNW 06:44:03 89° ENE 07:32:30 10° SSE visible
26 Sep 7.4 17:43:54 10° ENE 18:09:08 15° NE 18:47:49 10° NNE visible
26 Sep 7.0 21:52:57 10° SSW 22:22:54 84° ESE 00:35:40 10° NE visible
27 Sep 8.1 02:43:28 10° WNW 04:46:11 71° NE 05:53:47 10° SE visible
27 Sep 6.9 20:18:36 10° SSE 20:46:10 57° E 22:37:32 10° NE visible
28 Sep 7.7 00:58:56 10° W 02:12:49 64° N 04:10:26 10° E visible
28 Sep 7.9 06:10:38 10° NW 08:12:18 65° W 08:55:25 10° S visible
28 Sep 7.0 18:48:16 10° SE 19:17:37 34° ENE 20:39:39 10° NNE visible
28 Sep 7.4 23:18:12 10° SW 23:59:40 74° NW 02:20:38 10° ENE visible
29 Sep 8.2 04:20:13 10° WNW 06:32:12 89° WSW 07:20:20 10° SSE visible
29 Sep 7.4 17:29:12 10° E 17:55:19 16° NE 18:37:18 10° NNE visible
29 Sep 7.1 21:40:38 10° SSW 22:10:43 85° ESE 00:24:29 10° NE visible
30 Sep 8.2 02:31:46 10° WNW 04:35:41 72° NE 05:41:41 10° SE visible
30 Sep 6.9 20:05:53 10° S 20:33:10 59° E 22:25:57 10° NE visible
01 Oct 7.8 00:46:49 10° W 02:03:54 64° N 03:58:28 10° E visible
01 Oct 7.9 05:58:44 10° NW 07:59:07 64° W 08:42:35 10° S visible
01 Oct 7.0 18:34:59 10° SE 19:03:55 35° ENE 20:27:45 10° NNE visible
01 Oct 7.5 23:05:41 10° WSW 23:48:02 73° NW 02:08:50 10° ENE visible
02 Oct 8.1 04:08:10 10° NW 06:19:38 88° WSW 07:07:33 10° SSE visible
02 Oct 7.4 17:14:21 10° E 17:41:02 17° NE 18:25:51 10° NNE visible
02 Oct 7.1 21:27:45 10° SSW 21:57:59 87° ESE 00:12:35 10° ENE visible
03 Oct 8.2 02:19:26 10° WNW 04:24:14 73° NE 05:28:57 10° SE visible
03 Oct 6.9 19:52:38 10° S 20:19:39 61° E 22:13:40 10° NE visible
04 Oct 7.9 00:34:06 10° W 01:54:09 64° N 03:45:50 10° ESE visible
04 Oct 7.8 05:46:09 10° NW 07:45:19 62° W 08:29:10 10° S visible
04 Oct 7.0 18:21:14 10° SE 18:49:44 36° ENE 20:15:08 10° NE visible
